Temperature
12 12 12 11 11 11 11 11 11 11 11 11 11 11 11 12 12 12 12 12 13 13 13 14 14 14 14 14 15 15 15 15 15 15 15 16 16 16 16 15 15 16 15
12 12 11 11 11 11 11 11 11 11 11 11 11 11 11 11 12 12 12 12 13 13 13 13 13 14 14 14 14 14 15 15 15 15 15 15 15 15 15 15 15 15 15
12 12 11 11 11 11 11 11 11 11 11 11 11 11 11 11 11 12 12 12 12 12 13 13 13 13 14 14 14 14 14 14 14 15 15 15 15 15 15 15 15 15 14
12 12 11 11 11 11 11 11 11 11 11 11 11 11 11 11 11 12 12 12 12 12 12 13 13 13 13 14 14 14 14 14 14 14 14 14 14 15 14 14 14 14 14
12 12 11 11 11 11 11 11 11 11 11 11 11 11 11 11 11 11 12 12 12 12 12 12 12 13 13 13 13 14 14 14 14 14 14 14 14 14 14 14 14 13 13
12 12 12 11 11 11 11 11 11 11 11 11 11 11 11 11 11 12 12 12 12 12 12 12 12 13 13 13 13 13 14 14 14 14 14 14 14 14 14 14 13 13 12
12 12 12 11 11 11 11 11 11 11 11 11 11 11 11 11 11 12 12 12 12 12 12 12 12 12 13 13 13 13 13 13 14 14 14 14 14 14 14 13 13 13 13
12 12 12 12 11 11 11 11 11 11 11 11 11 11 11 11 12 12 12 12 12 12 12 12 12 12 12 13 13 13 13 13 13 13 14 14 14 14 14 13 13 13 12
13 12 12 12 12 11 11 11 11 11 11 11 11 11 11 11 11 12 12 12 12 12 12 12 12 12 13 13 13 13 13 13 13 13 13 13 13 13 13 13 12 12 12
13 12 12 12 12 12 11 11 11 11 11 11 11 11 11 11 11 12 12 11 11 11 12 12 12 12 13 13 13 13 13 13 13 13 13 13 13 13 13 13 13 12 12
13 13 12 12 12 12 12 12 11 11 11 11 11 11 11 11 11 11 11 11 11 11 11 12 12 12 12 13 13 13 13 13 13 13 12 12 12 12 12 12 12 12 12
14 13 13 12 12 12 12 12 12 11 11 11 11 11 11 11 11 11 11 11 11 11 11 11 12 12 12 12 12 13 13 13 12 12 12 12 12 12 12 12 12 12 12
14 13 13 13 12 12 12 12 11 11 11 11 11 11 11 11 11 11 11 11 12 11 11 11 12 12 12 12 12 12 12 12 12 12 12 12 12 12 12 11 11 11 11
14 13 13 13 13 12 12 12 11 11 11 11 11 11 11 11 11 11 11 11 11 11 11 11 11 12 12 12 12 12 12 12 11 12 12 11 11 11 11 11 11 11 11
14 14 13 13 13 13 12 12 12 12 11 11 11 11 11 11 11 11 11 11 11 11 11 11 11 11 11 11 11 11 11 11 11 11 11 11 11 11 11 11 11 10 10
14 14 14 13 13 13 13 12 12 12 12 12 12 11 11 11 11 11 11 11 11 11 11 11 11 10 10 10 10 11 11 11 11 11 11 11 11 10 10 10 10 10 10
14 14 14 13 13 13 13 12 12 12 12 12 12 12 11 11 11 11 11 11 11 11 11 11 11 11 10 10 10 10 10 10 11 10 10 10 10 10 10 10 10 10 10
15 14 14 14 14 13 13 13 12 12 12 12 12 12 12 11 11 11 11 11 11 11 11 10 11 10 10 10 10 10 10 10 10 10 10 10 10 10 10 10 10 10 10
15 14 14 14 14 13 13 13 13 12 12 12 12 12 12 12 11 11 11 11 11 10 10 10 10 10 10 10 10 10 10 10 10 10 10 10 10 10 10 10 10 10 9
14 14 14 14 14 13 13 13 13 13 12 12 12 12 12 12 11 11 11 11 11 11 10 10 10 10 10 10 10 10 10 10 10 10 10 10 10 10 10 9 9 9 9
14 14 14 13 13 13 13 13 13 13 13 12 12 12 12 12 11 11 11 11 11 11 11 11 10 10 10 10 10 10 10 10 10 10 10 10 10 9 9 9 9 9 9
12 12 12 12 13 13 13 13 13 13 13 12 12 12 12 12 12 11 11 11 11 11 11 11 11 11 11 11 10 10 10 10 10 10 10 10 9 9 9 9 9 9 9
11 11 11 11 12 12 12 12 12 12 12 12 12 12 12 12 12 12 12 11 11 11 11 11 11 11 11 11 11 10 10 10 10 10 10 10 10 9 9 9 9 9 8
10 10 10 10 11 11 11 11 11 12 12 12 12 12 12 12 12 12 12 11 11 11 11 11 11 11 11 11 11 11 11 10 10 10 10 10 10 9 9 9 9 9 8
9 9 9 9 9 9 10 10 10 11 11 11 12 12 12 12 11 11 11 11 11 11 11 11 11 11 11 11 11 11 11 11 11 10 10 10 9 9 9 9 9 8 8
8 8 8 8 8 8 8 9 9 9 10 10 11 11 11 11 11 11 11 11 11 11 11 11 11 11 11 11 11 11 11 11 11 10 10 10 9 9 9 9 9 8 8
Wind_Speed
9 9 9 9 9 9 9 9 9 9 8 8 7 6 5 5 4 4 4 5 6 7 7 8 9 9 8 8 8 8 8 7 6 4 4 6 8 9 9 10 11 12 13
8 8 8 9 9 9 9 9 9 9 8 8 7 6 5 5 4 4 4 5 5 6 7 8 9 8 10 9 8 9 8 8 7 7 5 6 7 9 9 9 9 10 10
7 8 8 9 9 10 9 9 9 9 8 8 7 7 6 5 4 3 4 4 4 5 6 7 7 8 9 8 9 9 8 8 7 7 6 5 5 7 9 8 8 7 9
6 7 8 8 9 9 9 9 9 9 9 9 8 7 6 5 5 4 3 3 3 3 4 5 6 7 9 9 8 9 9 9 9 8 7 7 6 7 8 8 8 7 7
5 6 7 8 8 8 9 9 9 9 9 8 8 8 7 6 6 6 4 2 2 2 3 3 4 5 6 7 6 8 9 9 9 8 8 7 7 8 8 7 8 8 6
5 6 6 7 8 8 8 9 9 9 9 8 9 8 8 7 9 9 6 2 2 2 2 2 2 3 4 6 6 7 8 10 11 10 9 10 10 10 9 9 9 8 5
4 5 5 6 7 8 8 8 8 8 9 9 9 9 9 9 11 10 8 3 1 1 1 1 1 1 3 4 6 8 6 6 8 10 11 12 12 12 12 12 11 9 6
4 4 5 6 6 7 7 8 8 7 8 8 9 9 9 10 12 11 9 4 3 2 1 0 1 1 2 3 4 6 6 6 8 8 8 9 10 11 11 10 10 8 7
3 4 4 5 6 6 7 7 7 7 7 7 7 8 9 10 13 12 9 4 4 4 3 3 1 1 1 1 4 5 5 5 5 5 5 7 9 11 12 10 10 10 7
3 3 3 4 5 5 6 6 6 6 6 6 7 7 8 9 12 13 10 4 4 4 4 4 5 4 3 1 3 5 5 5 6 7 7 9 10 11 12 11 11 11 8
3 3 3 3 4 4 4 4 5 5 5 6 6 6 7 8 10 12 12 6 5 4 4 3 4 6 5 2 1 3 4 5 6 7 7 7 7 7 8 7 7 8 8
4 4 4 4 3 3 3 4 4 4 4 5 5 5 5 6 7 9 11 9 7 4 4 4 4 6 5 4 2 4 4 4 5 6 6 6 6 6 6 6 6 5 4
5 5 5 4 4 4 4 4 3 3 3 4 4 4 4 5 4 5 6 7 7 4 4 6 6 6 4 4 5 4 3 4 5 6 6 5 5 6 7 6 7 8 8
7 6 5 5 5 4 4 4 4 4 3 3 4 4 4 4 5 5 5 3 2 2 2 3 3 5 4 5 3 3 2 3 4 5 6 6 6 6 7 7 7 7 7
8 7 7 6 6 5 5 4 5 4 3 4 4 4 4 4 5 7 6 4 4 4 3 1 1 2 3 3 3 3 3 4 4 5 6 7 7 6 6 6 6 6 5
8 8 7 6 6 6 6 5 7 8 5 7 7 7 4 4 5 5 5 5 5 5 4 0 0 1 2 2 3 3 3 3 4 5 6 6 7 7 6 5 5 5 6
9 9 7 7 7 7 6 6 6 7 11 11 10 10 9 7 6 5 5 5 4 4 2 1 1 1 1 2 2 3 2 3 4 5 5 6 6 6 6 6 6 6 6
9 9 9 8 8 8 8 7 7 7 6 6 9 12 11 10 8 7 6 5 4 4 3 3 2 2 2 3 3 3 3 3 4 4 5 6 6 6 6 6 6 7 6
8 7 8 8 9 9 9 8 8 9 8 8 7 7 10 10 10 9 7 6 5 4 4 4 4 3 3 3 4 4 4 4 5 5 5 6 6 6 6 6 6 7 6
7 8 9 9 9 9 9 10 9 9 9 9 9 8 6 7 7 7 8 7 7 6 5 5 5 5 5 5 5 5 6 6 6 6 6 6 6 6 7 7 7 8 7
8 8 7 9 9 10 10 10 10 10 10 10 10 9 8 8 9 9 8 8 8 8 7 7 6 6 6 6 6 7 8 7 7 7 7 7 7 7 6 7 7 7 7
8 8 7 8 8 9 10 10 11 11 12 12 11 10 11 10 10 10 10 9 9 9 8 8 8 7 7 8 8 8 9 9 8 8 8 8 8 8 8 7 8 8 8
8 9 9 8 8 9 9 10 11 11 12 12 11 11 10 11 11 11 11 11 10 10 9 9 9 9 9 9 9 9 9 10 9 9 9 9 9 9 9 9 10 10 9
9 9 9 9 8 8 9 9 10 11 12 12 12 12 11 11 12 13 12 11 11 11 11 10 11 13 14 11 10 11 11 10 11 10 12 11 10 9 9 9 10 11 11
9 9 9 9 9 9 9 10 10 10 11 11 11 11 12 12 12 12 12 12 12 12 13 13 11 13 16 17 15 13 13 13 12 11 11 11 12 12 11 11 10 10 11
10 10 10 9 9 9 10 10 10 11 11 11 11 11 11 11 12 12 12 11 12 12 13 12 15 16 16 16 18 17 17 18 18 15 12 11 12 12 12 11 12 12 12
Wind_Direction
345 344 344 346 346 345 344 344 342 339 339 336 336 330 327 320 306 280 260 246 238 232 227 226 227 224 218 212 212 211 212 209 206 193 182 175 179 179 170 172 167 164 168
343 343 346 347 350 350 350 349 347 347 345 344 342 340 336 326 315 299 280 260 246 241 234 230 228 222 219 215 210 209 207 204 200 190 184 182 185 179 169 167 164 166 162
345 347 348 354 357 354 351 352 351 351 352 351 349 347 343 334 326 312 294 273 253 248 242 236 231 224 220 217 212 209 206 202 196 190 183 176 174 171 164 160 156 151 153
345 350 353 356 356 354 355 356 355 356 356 355 352 352 348 342 340 332 311 290 263 249 247 243 235 224 219 215 212 207 201 197 195 189 180 174 170 168 165 160 154 148 145
347 352 356 354 355 355 357 358 360 1 359 357 355 357 356 353 352 340 318 293 275 260 251 249 241 229 218 211 210 204 199 196 191 188 183 178 176 173 175 168 157 144 138
345 354 355 352 357 357 357 359 2 3 3 4 4 4 2 2 354 352 337 310 281 262 253 250 232 207 197 193 199 207 207 201 194 191 189 186 186 181 172 166 160 157 159
343 349 347 351 356 355 356 1 2 2 5 6 8 8 7 7 6 5 354 349 354 348 300 228 213 192 195 188 180 189 201 209 205 201 196 191 184 180 174 172 173 170 160
336 341 346 346 351 354 357 359 359 2 5 6 9 7 6 12 14 9 355 10 32 37 36 73 184 187 193 190 184 186 193 200 204 204 200 191 181 174 175 172 161 144 124
321 330 339 341 345 349 353 354 355 358 2 3 9 7 9 16 21 13 359 27 36 35 41 39 37 114 53 248 185 175 171 175 160 153 152 149 146 152 157 154 156 155 150
301 313 326 331 335 341 347 346 347 349 354 357 7 9 15 15 19 15 3 23 35 35 41 46 45 26 25 302 192 178 172 166 156 149 147 144 150 154 161 170 168 168 158
279 288 297 306 317 329 336 337 338 344 348 357 5 11 17 18 20 21 12 17 20 26 30 31 39 35 35 32 228 178 159 155 153 148 145 147 150 156 162 165 169 171 166
256 266 274 286 296 304 317 324 329 332 337 350 357 8 13 21 22 18 16 17 3 24 26 26 42 46 50 55 91 107 124 150 149 146 143 145 149 153 151 148 143 135 133
244 251 261 267 270 277 291 301 309 315 327 341 348 355 3 8 21 23 15 19 9 22 36 41 43 48 67 86 80 95 140 156 152 148 142 135 132 135 133 126 117 108 102
247 253 255 258 261 261 266 278 288 299 307 319 331 339 346 353 1 0 360 10 28 35 53 81 89 69 77 77 93 99 114 125 146 147 138 131 128 132 137 140 138 134 123
253 254 255 252 258 262 257 259 267 270 284 290 308 318 325 332 2 354 340 348 353 358 341 344 61 77 87 90 88 85 102 121 125 134 140 139 137 134 137 143 147 152 150
259 259 257 253 247 250 255 250 223 240 241 243 260 279 286 289 319 319 325 332 333 322 301 300 59 92 101 107 112 111 111 119 129 137 141 141 144 145 145 149 156 159 154
261 261 258 254 251 247 249 256 261 231 223 233 239 244 255 277 277 279 290 294 293 293 272 256 220 186 157 144 135 132 131 132 137 146 152 153 153 155 158 162 167 165 162
267 263 259 254 252 252 251 250 254 262 259 246 224 222 232 242 248 252 261 266 248 235 247 249 242 224 200 183 173 165 154 153 157 160 162 163 163 166 167 170 173 172 169
275 269 263 261 254 251 250 249 250 251 256 259 256 219 210 225 228 232 234 246 255 249 238 235 234 229 219 204 191 185 181 179 178 177 174 173 173 174 175 177 174 166 177
285 276 270 266 260 253 248 247 248 248 250 252 252 250 223 215 231 224 219 232 242 244 240 235 228 226 220 212 203 199 195 191 190 190 185 184 184 184 183 184 183 182 191
298 291 269 267 264 259 255 252 251 250 250 250 250 243 227 233 241 242 235 231 234 237 235 233 228 221 219 213 209 208 208 203 198 199 195 193 193 192 192 192 192 193 191
308 301 293 283 275 268 263 260 257 255 253 253 253 239 200 227 242 243 240 237 234 233 232 229 226 221 218 215 214 213 213 211 206 203 202 199 198 198 198 199 198 197 196
317 312 304 296 289 282 272 265 261 258 257 255 252 250 233 230 236 239 240 239 235 231 226 224 226 223 217 217 218 219 219 215 210 206 205 203 203 203 203 204 205 204 204
328 321 314 308 301 294 287 281 274 267 263 260 256 251 247 242 241 241 240 239 234 230 226 223 224 224 220 216 217 218 221 219 213 211 210 209 207 207 207 208 209 209 211
335 330 324 318 312 305 299 293 287 281 274 268 263 259 255 251 247 244 242 239 236 232 228 225 224 225 225 220 216 216 207 203 208 211 207 210 211 209 209 210 210 211 211
339 336 332 327 321 315 310 304 299 295 288 282 275 269 264 260 256 252 247 241 237 234 232 228 226 225 225 223 221 214 199 196 201 207 210 209 210 211 209 211 212 212 212
Height
1519 1515 1512 1508 1504 1501 1497 1493 1490 1486 1483 1480 1477 1475 1474 1472 1471 1471 1471 1472 1473 1474 1475 1477 1479 1481 1484 1487 1489 1492 1496 1499 1503 1506 1509 1512 1515 1518 1521 1525 1528 1530 1533
1518 1515 1511 1508 1504 1501 1497 1493 1490 1486 1483 1480 1477 1475 1473 1471 1470 1469 1469 1469 1470 1471 1472 1474 1475 1478 1480 1482 1485 1488 1491 1494 1498 1501 1504 1508 1511 1514 1518 1521 1524 1527 1530
1518 1514 1511 1508 1504 1501 1497 1494 1490 1487 1483 1480 1477 1475 1472 1470 1469 1468 1467 1467 1468 1468 1469 1471 1472 1474 1476 1478 1480 1483 1487 1490 1494 1497 1500 1504 1507 1511 1514 1517 1520 1523 1526
1517 1514 1511 1508 1505 1501 1498 1495 1491 1488 1484 1481 1478 1475 1472 1470 1468 1467 1466 1466 1466 1466 1467 1468 1469 1471 1473 1475 1477 1479 1483 1486 1489 1493 1496 1500 1503 1507 1510 1513 1516 1519 1522
1517 1515 1512 1509 1505 1502 1499 1496 1492 1489 1485 1482 1479 1476 1473 1471 1468 1466 1465 1465 1464 1465 1465 1466 1467 1468 1469 1471 1474 1476 1479 1482 1485 1488 1492 1495 1499 1502 1506 1509 1512 1516 1519
1517 1515 1511 1509 1506 1503 1500 1497 1493 1490 1487 1483 1480 1477 1474 1471 1468 1466 1465 1464 1464 1464 1464 1464 1465 1466 1467 1469 1471 1473 1476 1479 1481 1484 1487 1490 1494 1498 1501 1505 1508 1512 1515
1517 1514 1512 1509 1506 1503 1501 1498 1494 1491 1488 1485 1481 1478 1475 1472 1469 1467 1465 1464 1464 1463 1463 1464 1464 1464 1466 1467 1469 1471 1473 1476 1479 1481 1484 1486 1490 1493 1497 1501 1504 1508 1511
1517 1514 1512 1509 1507 1504 1501 1498 1496 1493 1489 1486 1483 1479 1476 1473 1471 1468 1466 1465 1464 1464 1463 1464 1464 1464 1465 1466 1468 1469 1471 1473 1475 1478 1481 1484 1487 1490 1494 1497 1501 1505 1509
1516 1514 1512 1509 1507 1504 1502 1499 1496 1494 1491 1488 1485 1481 1478 1475 1473 1470 1468 1466 1465 1465 1464 1464 1464 1464 1464 1465 1467 1468 1469 1471 1474 1476 1478 1481 1484 1487 1491 1494 1498 1502 1505
1515 1513 1511 1509 1506 1504 1502 1499 1497 1495 1492 1489 1486 1483 1480 1477 1475 1472 1470 1469 1467 1466 1465 1464 1464 1464 1464 1465 1466 1467 1468 1470 1472 1474 1476 1479 1482 1485 1488 1492 1495 1498 1501
1513 1512 1510 1508 1506 1504 1502 1500 1497 1495 1493 1491 1488 1485 1482 1479 1477 1474 1472 1470 1469 1468 1466 1465 1464 1464 1464 1464 1465 1466 1468 1469 1471 1473 1475 1477 1480 1483 1486 1489 1493 1496 1499
1512 1510 1509 1507 1505 1504 1501 1499 1497 1495 1494 1492 1489 1487 1484 1481 1479 1476 1474 1472 1471 1469 1468 1466 1465 1465 1464 1464 1465 1466 1467 1469 1471 1473 1475 1477 1479 1482 1485 1488 1491 1494 1497
1510 1509 1507 1506 1504 1502 1501 1499 1497 1495 1494 1492 1490 1488 1485 1483 1480 1478 1476 1474 1472 1471 1469 1468 1466 1466 1465 1465 1465 1466 1467 1469 1470 1472 1474 1476 1478 1481 1484 1486 1489 1492 1495
1508 1507 1506 1504 1503 1501 1499 1498 1497 1495 1494 1492 1490 1488 1486 1484 1481 1479 1477 1476 1474 1473 1471 1470 1468 1467 1467 1466 1466 1467 1468 1469 1470 1472 1474 1476 1478 1481 1483 1486 1489 1491 1494
1505 1505 1504 1502 1501 1499 1498 1496 1495 1493 1492 1491 1489 1488 1486 1484 1482 1479 1478 1476 1475 1474 1472 1472 1471 1470 1469 1468 1468 1468 1468 1469 1470 1472 1473 1476 1478 1481 1483 1485 1488 1491 1493
1503 1502 1501 1499 1498 1496 1495 1494 1492 1491 1489 1488 1487 1486 1484 1483 1481 1479 1478 1476 1475 1474 1473 1473 1472 1471 1470 1470 1469 1469 1469 1470 1471 1472 1473 1476 1478 1481 1483 1485 1488 1490 1492
1499 1498 1497 1496 1495 1493 1492 1491 1490 1488 1487 1485 1484 1483 1482 1481 1480 1478 1477 1476 1475 1474 1473 1473 1472 1472 1471 1471 1470 1470 1470 1471 1471 1473 1474 1476 1478 1480 1483 1485 1487 1489 1492
1494 1493 1493 1491 1490 1490 1489 1487 1486 1485 1484 1482 1481 1480 1479 1479 1478 1477 1476 1475 1474 1473 1472 1472 1472 1471 1471 1471 1470 1470 1471 1471 1472 1473 1474 1476 1478 1480 1482 1485 1487 1489 1491
1490 1489 1488 1487 1486 1485 1484 1483 1482 1481 1480 1479 1478 1477 1476 1475 1475 1474 1473 1473 1472 1472 1471 1471 1470 1470 1470 1470 1470 1470 1471 1471 1472 1473 1474 1475 1477 1479 1481 1483 1485 1487 1489
1485 1484 1483 1481 1480 1479 1479 1478 1477 1476 1475 1474 1474 1473 1472 1471 1471 1470 1470 1469 1469 1469 1469 1468 1468 1468 1468 1468 1468 1469 1470 1470 1471 1472 1473 1474 1476 1478 1480 1481 1483 1485 1487
1480 1479 1477 1476 1475 1474 1473 1472 1472 1471 1470 1469 1469 1468 1467 1467 1466 1466 1466 1465 1465 1465 1465 1465 1465 1464 1465 1465 1466 1466 1467 1468 1469 1470 1471 1473 1474 1476 1477 1479 1481 1483 1484
1476 1474 1472 1471 1469 1468 1467 1467 1466 1465 1464 1463 1463 1462 1461 1461 1461 1461 1461 1460 1460 1460 1460 1460 1460 1460 1460 1461 1462 1463 1464 1465 1466 1467 1468 1470 1471 1473 1474 1476 1478 1480 1481
1472 1470 1468 1466 1464 1463 1461 1460 1459 1458 1458 1457 1457 1456 1455 1454 1454 1454 1454 1454 1454 1454 1454 1454 1454 1455 1455 1456 1457 1458 1459 1460 1462 1463 1464 1466 1467 1469 1471 1472 1474 1476 1478
1469 1466 1464 1461 1459 1458 1456 1454 1453 1452 1451 1450 1450 1449 1449 1448 1447 1447 1447 1447 1447 1447 1448 1448 1448 1449 1450 1450 1451 1452 1453 1455 1457 1458 1460 1461 1463 1465 1466 1468 1469 1471 1473
1465 1463 1460 1457 1455 1453 1451 1449 1448 1446 1445 1444 1443 1442 1441 1441 1440 1440 1440 1440 1440 1440 1440 1441 1441 1442 1443 1444 1445 1446 1447 1449 1451 1452 1454 1456 1457 1459 1461 1463 1464 1466 1468
1463 1460 1457 1454 1451 1449 1447 1444 1443 1441 1439 1438 1436 1435 1434 1433 1433 1433 1433 1432 1432 1432 1433 1433 1434 1435 1436 1437 1438 1439 1441 1443 1445 1446 1448 1450 1452 1453 1455 1457 1459 1461 1462